A-11 Canister half - Orbit

View from above orbital plane
View from above orbital plane
View from above satellite
View from above satellite

Ground track
Ground track

The orbit data is extracted from the following two-line orbital elements,

1 00053U 60009E   13141.97594181 -.00000085  00000-0  00000+0 0  3668
2 00053 047.2762 305.2167 0097518 008.6304 129.9397 12.17113332353907
Epoch (UTC): 21 May 2013 23:25:21
Eccentricity: 0.0097518
inclination: 47.2762°
perigee height: 1527 km
apogee height: 1683 km
right ascension of ascending node: 305.2167°
argument of perigee: 8.6304°
revolutions per day: 12.17113332
mean anomaly at epoch: 129.9397°
orbit number at epoch: 35390

The dashed part of the orbit path shows where the satellite is in the earth's shadow,  

Developed and maintained by Chris Peat, Heavens-Above GmbH. Please read the updated FAQ before sending e-mail. Imprint. DLR